DMSP 5D-2 F11 DEB, 28335

Orbit data source: Space-Track

DMSP 5D-2 F11 DEB, 28335 is space debris in SSO originally from a launch on Thu, 28 Nov 1991 UTC launched from the Air Force Western Test Range (AFWTR). Debris objects in space refer to the collection of defunct objects orbiting the Earth. Examples of debris include non-operational satellites, rocket bodies, and fragments generated from explosions, collisions, or faulty payload assembly.

Loading next visibility...
Identifier
28335, 1991-082AY
Orbit
SSO
Country
Flag of USUS
Related business
Manufacturer
Unknown
Mission
Spacecraft
Bus & Motor
Unknown
Mass
Unknown
Launch date (UTC)
1991-11-28 (34 years ago)
Launch vehicle
Unknown
Launch site
Air Force Western Test Range (AFWTR)
Object type
Payload
Rocket body
Debris
Shape & HBR
Unknown shape, 0.1 m
Radar Cross Section
Small (<0.1 m²)

Expand to show TLE details & history
Last TLE update: 3 days ago

TLE from 3 days ago
0 DMSP 5D-2 F11 DEB
1 28335U 91082AY  26118.96174501  .00004252  00000-0  11647-2 0  9996
2 28335  98.5570 193.8421 0009213  52.1626 308.0398 14.47642167667880
Epoch: 2026-04-28T23:04Z
TLE epoch observation values (Epoch: 2026-04-28T23:04:54.768Z)
Latitude
-0.00011°
Longitude
-9.31563°
Altitude
732.283 km
Speed
7.491 km/s
True Right ascension
12h 55m 22s
True Declination
0° 00' 00"
Sunlit
Object was in full shadow at epoch
Visualization orbit readout
Latitude
Unknown
Longitude
Unknown
Altitude
Unknown
Speed
Unknown
Apparent Right ascension
Unknown
Apparent Declination
Unknown
Sunlit
N/A
Visualization observer readout
Local Sidereal Time
04:04:48
Azimuth
Unknown
Elevation
Unknown
Doppler factor
Unknown
Orbital elements
Apogee altitude
737.023 km
Perigee altitude
723.925 km
Semi-major axis
7,108.611 km
Eccentricity
0.00092
Inclination
98.557°
RAAN
193.8421°
Arg. of periapsis
52.1626°
True anomaly
307.95659°
Mean anomaly
308.0398°
Eccentric anomaly
307.9982°
Mean motion
3.62131 °/min
Orbital period
99.41 mins
BSTAR
0.0011647
Loading maneuver chart data...
Computing Atmospheric mass density...

Documentation

Showing up to 5 results
|